Tracking 30918 objects as of 2-Jul-2025
HD Live streaming from Space Station
objects crossing your sky now

STARLINK-32236

Track STARLINK-32236 now!
10-day predictions
STARLINK-32236 is classified as:


NORAD ID: 60418
Int'l Code: 2024-141W
Perigee: 481.7 km
Apogee: 483.1 km
Inclination: 53.2 °
Period: 94.1 minutes
Semi major axis: 6853 km
RCS: Unknown
Launch date: August 10, 2024
Source: United States (US)
Launch site: AIR FORCE EASTERN TEST RANGE (AFETR)
Your satellite tracking list
Your tracking list is empty




NASA's NSSDC Master Catalog

Two Line Element Set (TLE):
1 60418U 24141W   25182.70070942 -.00000338  00000-0  70795-6 0  9997
2 60418  53.1607 328.3665 0001016  80.7146 279.3970 15.30192827 51157
Source of the keplerian elements: AFSPC